Regional Weather Roundup
Issued by NWS Cleveland, OH

Home | Current Version | Previous Version | Graphics & Text | Print | Product List | Glossary On
Versions: 1 2 3 4 5 6 7 8 9 10 11 12 13 14 15 16 17 18 19 20 21 22 23 24 25 26 27 28 29 30 31 32 33 34 35 36 37 38 39 40 41 42 43 44 45 46 47 48 49 50
000
ASUS41 KCLE 190002
RWRCLE
OHIO REGIONAL WEATHER ROUNDUP
NATIONAL WEATHER SERVICE CLEVELAND, OH
800 PM EDT THU SEP 18 2014

NOTE: "FAIR" INDICATES FEW OR NO CLOUDS BELOW 12,000 FEET WITH NO
SIGNIFICANT WEATHER AND/OR OBSTRUCTIONS TO VISIBILITY.

OHZ001>008-015>018-024>027-034-035-043-044-190100-
   NORTHWEST OHIO

CITY           SKY/WX    TMP DP  RH WIND       PRES   REMARKS
DEFIANCE       PTCLDY    64  51  62 NE6       30.12R
FINDLAY        CLEAR     64  49  57 NE8       30.11R
TOLEDO EXPRESS CLEAR     60  52  74 E6        30.13R
TOLEDO EXEC    PTCLDY    62  52  69 E5        30.14R
LIMA           CLEAR     59  51  75 NE6       30.11R
$$

OHZ009>014-019>023-028>033-038-089-190100-
   NORTHEAST OHIO

CITY           SKY/WX    TMP DP  RH WIND       PRES   REMARKS
CLE-HOPKINS    PTCLDY    59  51  75 NE8       30.15S
CLE-LAKEFRONT  MOCLDY    61  52  72 NE8       30.13S
CUY CO. ARPT   PTCLDY    57  52  82 E8        30.15R
LORAIN-ELYRIA  CLEAR     60  52  74 E6        30.15R
ASHTABULA      MOCLDY    54  50  86 CALM      30.15R
AKRON-CANTON   PTCLDY    57  47  69 N8        30.13R
WOOSTER        CLEAR     58  49  72 N6        30.14R
MANSFIELD      CLEAR     58  50  75 N6        30.13R
YOUNGSTOWN     PTCLDY    56  50  80 N7        30.14R
$$

OHZ042-051>053-060>062-070>072-077>081-190100-
  SOUTHWEST OHIO

CITY           SKY/WX    TMP DP  RH WIND       PRES   REMARKS
CINC-COVINGTON CLEAR     68  45  43 NE7       30.07R
CINC-LUNKEN    CLEAR     60  53  77 CALM      30.08R
HAMILTON       CLEAR     58  52  80 CALM      30.08S
DAYTON         PTCLDY    65  48  54 NE5       30.10R
WRIGHT-PAT AFB CLEAR     65  47  51 NE5       30.09R
DAYTON GENERAL CLEAR     65  48  54 E5        30.08R
WILMINGTON     CLEAR     62  47  57 E5        30.09R
$$

OHZ036-037-039>041-045>050-054>059-063>069-073>076-082>088-190100-
  CENTRAL AND SOUTHEAST OHIO

CITY           SKY/WX    TMP DP  RH WIND       PRES   REMARKS
COLUMBUS       PTCLDY    67  47  48 CALM      30.09R
OSU AIRPORT    CLEAR     63  47  55 NE5       30.10R
BOLTON FIELD   CLEAR     62  48  59 CALM      30.10R
RICKENBACK AFB CLEAR     61  48  60 E5        30.09R
NEWARK         CLEAR     56  50  80 CALM      30.10R
MARION         CLEAR     59  50  72 NE8       30.12R
LANCASTER      CLEAR     59  48  67 NE5       30.10R
ZANESVILLE     CLEAR     61  48  62 CALM      30.10R
NEW PHILLY     CLEAR     59  52  77 N3        30.11R
$$



USA.gov is the U.S. government's official web portal to all federal, state and local government web resources and services.